STARLINK-1994, 47589

Orbit data source: Space-Track

STARLINK-1994, 47589 is a payload satellite owned by SpaceX/Seattle (US) in LEO that was launched on Thu, 04 Feb 2021 UTC via an FALCON 9 launch vehicle from the Air Force Eastern Test Range (AFETR). Payload-class satellites include a variety of spacecraft equipped with specific instruments for various scientific and technological missions. These include communications satellites like Starlink; space stations such as the ISS; scientific satellites like the Hubble; Earth observation satellites from companies like Planet Labs, Umbra, and HawkEye 360; GPS; miniature CubeSats for education and research; and military/defense satellites.

Loading next visibility...
Identifier
47589, 2021-009AT
Orbit
LEO
Country
Flag of USUS
Related business
Manufacturer
SpaceX/Seattle
Mission
Partially operational Commercial Communications
Bus & Motor
STARLINK, Unknown motor
Mass
260 kg wet, ~248 kg dry
Launch date (UTC)
2021-02-04 (5 years ago)
Launch vehicle
FALCON 9
Launch site
Air Force Eastern Test Range (AFETR)
Object type
Payload
Rocket body
Debris
Shape & HBR
Box + 1 Pan, 10.1 m
Radar Cross Section
13.562 m², Large (>1 m²)

Expand to show TLE details & history
Last TLE update: 2 days ago

TLE from 2 days ago
0 STARLINK-1994
1 47589U 21009AT  26171.50003471  .00174915  00000-0  81722-3 0  9992
2 47589  53.0421 215.3359 0004125  27.3465 174.4478 15.82261196  5974
Epoch: 2026-06-20T12:00Z
TLE epoch observation values (Epoch: 2026-06-20T12:00:02.998Z)
Latitude
-17.43729°
Longitude
-39.79901°
Altitude
331.55 km
Speed
7.708 km/s
True Right ascension
03h 15m 42s
True Declination
-17° 19' 59"
Sunlit
Object was in daylight at epoch
Visualization orbit readout
Latitude
Unknown
Longitude
Unknown
Altitude
Unknown
Speed
Unknown
Apparent Right ascension
Unknown
Apparent Declination
Unknown
Sunlit
N/A
Visualization observer readout
Local Sidereal Time
22:00:34
Azimuth
Unknown
Elevation
Unknown
Doppler factor
Unknown
Orbital elements
Apogee altitude
327.094 km
Perigee altitude
321.564 km
Semi-major axis
6,702.466 km
Eccentricity
0.00041
Inclination
53.0421°
RAAN
215.3359°
Arg. of periapsis
27.3465°
True anomaly
174.45237°
Mean anomaly
174.4478°
Eccentric anomaly
174.45009°
Mean motion
3.95541 °/min
Orbital period
91.01 mins
BSTAR
0.00081722
Loading maneuver chart data...
Computing Atmospheric mass density...

Documentation

Showing up to 5 results
|